This demonstration page uses our WeatherBlox Daily Observations layout. Learn more.

Left ArrowRight Arrow

Hourly Observations for May 12, 2019

Temp ( °F °C ) Dew Point ( °F °C ) Humidity (%) Winds ( mph kmh ) Pressure ( in mb ) Visibility ( mi km ) Precip ( " mm )
12:45 am 00:45 Mostly Cloudy 51 10.6 47 8.3 86 86 Calm 29.84 1010 10 16 0.00 0.00
12:52 am 00:52 Mostly Cloudy 50 10 46 7.8 86 86 NW 3 6 29.83 1010 10 16 0.00 0.00
12:59 am 00:59 Mostly Cloudy 51 10.6 46 7.8 83 83 NW 3 6 29.84 1010 10 16 0.00 0.00
1:52 am 01:52 Cloudy 52 11.1 48 8.9 86 86 Calm 29.81 1010 10 16 0.00 0.00
2:24 am 02:24 Cloudy 53 11.7 48 8.9 83 83 SSW 3 6 29.81 1010 10 16 0.00 0.00
2:52 am 02:52 Cloudy 53 11.7 49 9.4 86 86 SSE 7 11 29.80 1009 10 16 0.00 0.00
3:52 am 03:52 Cloudy 52 11.1 49 9.4 89 89 SE 6 9 29.79 1009 10 16 0.00 0.00
4:52 am 04:52 Cloudy with Light Rain 52 11.1 49 9.4 89 89 WSW 5 7 29.78 1009 10 16 0.04 1.02
4:59 am 04:59 Mostly Cloudy with Light Rain 51 10.6 48 8.9 89 89 WSW 3 6 29.80 1009 10 16 0.00 0.03
5:24 am 05:24 Mostly Cloudy 51 10.6 47 8.3 86 86 SW 3 6 29.80 1009 10 16 0.00 0.03
5:52 am 05:52 Cloudy with Light Rain 52 11.1 48 8.9 86 86 Calm 29.78 1009 8 13 0.00 0.03
6:27 am 06:27 Cloudy 52 11.1 48 8.9 86 86 W 8 13 29.80 1009 10 16 0.00 0.03
6:52 am 06:52 Mostly Cloudy 51 10.6 47 8.3 86 86 WNW 7 11 29.79 1009 10 16 0.00 0.03
7:34 am 07:34 Mostly Cloudy 50 10 45 7.2 83 83 WNW 8 13 29.81 1010 10 16 0.00 0.00
7:52 am 07:52 Mostly Cloudy 50 10 44 6.7 80 80 NW 9 15 29.80 1009 10 16 0.00 0.00
8:52 am 08:52 Mostly Cloudy 54 12.2 44 6.7 69 69 NNW 9 15 29.80 1009 10 16 0.00 0.00
9:36 am 09:36 Mostly Cloudy 56 13.3 45 7.2 67 67 NW 8 13 29.80 1009 10 16 0.00 0.00
9:52 am 09:52 Mostly Cloudy 56 13.3 46 7.8 70 70 N 6 9 29.80 1009 10 16 0.00 0.00
10:52 am 10:52 Mostly Cloudy 58 14.4 47 8.3 67 67 N 7 11 29.80 1009 10 16 0.00 0.00
11:34 am 11:34 Mostly Cloudy 59 15 46 7.8 62 62 N 6 9 29.80 1009 10 16 0.00 0.00
11:52 am 11:52 Mostly Cloudy 60 15.6 45 7.2 58 58 NNW 6 9 29.80 1009 10 16 0.00 0.00
12:52 pm 12:52 Mostly Cloudy 61 16.1 44 6.7 54 54 N 7 11 29.80 1009 10 16 0.00 0.00
1:52 pm 13:52 Mostly Cloudy 63 17.2 44 6.7 50 50 N 7 11 29.80 1009 10 16 0.00 0.00
2:52 pm 14:52 Mostly Cloudy 59 15 45 7.2 60 60 ENE 10 17 29.83 1010 10 16 0.00 0.03
3:52 pm 15:52 Mostly Cloudy 62 16.7 47 8.3 58 58 E 7 11 29.82 1010 10 16 0.00 0.00
4:52 pm 16:52 Mostly Cloudy 63 17.2 46 7.8 54 54 NNE 10 17 29.83 1010 10 16 0.00 0.00
5:52 pm 17:52 Mostly Cloudy 61 16.1 44 6.7 54 54 ENE 7 11 29.84 1010 10 16 0.00 0.00
6:52 pm 18:52 Mostly Cloudy 59 15 45 7.2 60 60 ENE 10 17 29.86 1011 10 16 0.00 0.00
7:52 pm 19:52 Mostly Cloudy 57 13.9 45 7.2 64 64 E 9 15 29.87 1011 10 16 0.00 0.00
8:52 pm 20:52 Mostly Clear 54 12.2 44 6.7 69 69 E 3 6 29.88 1012 10 16 0.00 0.00
9:52 pm 21:52 Mostly Clear 53 11.7 44 6.7 72 72 SSE 3 6 29.90 1013 10 16 0.00 0.00
10:52 pm 22:52 Clear 51 10.6 44 6.7 77 77 ESE 6 9 29.92 1013 10 16 0.00 0.00
11:52 pm 23:52 Clear 50 10 43 6.1 77 77 SE 6 9 29.93 1014 10 16 0.00 0.00

Powered by AerisWeather